Location: Most
(50.5133°N, 13.6207°E)
Time: 22:07:12
(UTC+02:00)

ISS - Pass Details

Date: 13 September 2019
Orbit: 411 x 421 km, 51.6° (Epoch: 17 September)

Event Time Altitude Azimuth Distance (km) Brightness Sun altitude
Exits shadow 03:57:50 23° 108° (ESE) 931 -1.7 -23.8°
Drops below altitude 10° 03:59:14 10° 107° (ESE) 1,489 -0.6 -23.6°
Sets 04:01:20 0° 107° (ESE) 2,353 0.5 -23.3°
